Regional Weather Roundup
Issued by NWS

Home | Current Version | Previous Version | Text Only | Print | Product List | Glossary Off
Versions: 1 2 3 4 5 6 7 8 9 10 11 12 13 14 15 16 17 18 19 20 21 22 23 24 25 26 27 28 29 30 31 32 33 34 35 36 37 38 39 40 41 42 43 44 45 46 47 48 49 50

000
ASUS45 KBOU 291507
RWRCO

WEATHER ROUNDUP FOR COLORADO
NATIONAL WEATHER SERVICE DENVER/BOULDER CO
900 AM MDT FRI AUG 29 2014

NOTE: "FAIR" INDICATES FEW OR NO CLOUDS BELOW 12000 FEET WITH NO
SIGNIFICANT WEATHER AND/OR OBSTRUCTIONS TO VISIBILITY.

COZ001>005-013-030-031-291600-
...NORTHWEST COLORADO...

CITY           SKY/WX    TMP DP  RH WIND       PRES   REMARKS
CRAIG          SUNNY     58  48  69 E8        30.25S
HAYDEN         SUNNY     54  45  71 SE12      30.27S
MEEKER         SUNNY     56  46  69 N3        30.27S
MOUNT WERNER   NOT AVBL
STEAMBOAT SPGS MOSUNNY   50  46  85 CALM      30.29S
WALDEN         MOSUNNY   50  43  76 S3        30.34R
$$

COZ006>008-011-291600-
...WEST CENTRAL VALLEYS...

CITY           SKY/WX    TMP DP  RH WIND       PRES   REMARKS
GRAND JUNCTION SUNNY     63  50  62 SE10      30.19S
MONTROSE       MOSUNNY   62  45  53 CALM      30.27R
EAGLE          MOSUNNY   52  46  82 CALM      30.34F
RIFLE          SUNNY     58  48  69 VRB3      30.25S
DELTA          MOSUNNY   58  49  71 CALM      30.24S
NUCLA          NOT AVBL
$$

COZ017>023-064>068-291600-
...SOUTHWEST COLORADO...

CITY           SKY/WX    TMP DP  RH WIND       PRES   REMARKS
DURANGO        SUNNY     58  39  49 CALM      30.26S
CORTEZ         SUNNY     58  43  57 CALM      30.24S
PAGOSA SPRINGS SUNNY     58  33  39 CALM      30.32F
TELLURIDE      SUNNY     52  39  62 CALM      30.40S
WOLF CREEK PAS SUNNY     45  32  61 NE9       30.55S
$$

COZ009-010-012-014-032>034-037-058>063-291600-
...CENTRAL COLORADO...

CITY           SKY/WX    TMP DP  RH WIND       PRES   REMARKS
ASPEN          SUNNY     53  43  68 CALM      30.35S
BUENA VISTA    SUNNY     54  40  59 SE6       30.34F
COPPER MTN     PTSUNNY   45  37  76 W17       30.57R
BERTHOUD PASS  FOG       36  34  93 NW17      30.57S VSB<1/4
COTTONWOOD PAS SUNNY     55  32  41 CALM      30.44S
GUNNISON       SUNNY     46  37  71 CALM      30.40S
KREMMLING      FOG       43  41  93 CALM      30.37S VSB 1
LEADVILLE      SUNNY     50  38  63 CALM      30.44F
MONARCH PASS   SUNNY     43  32  65 CALM      30.65F
SALIDA         SUNNY     54  41  62 CALM      30.40F
SUNLIGHT       SUNNY     50  41  71 CALM      30.52S
WILKERSON PASS NOT AVBL
$$

COZ069>075-291600-
...SAN LUIS VALLEY/SANGRE DE CRISTO MOUNTAINS...

CITY           SKY/WX    TMP DP  RH WIND       PRES   REMARKS
ALAMOSA        SUNNY     53  39  59 S3        30.33S
LA VETA PASS   NOT AVBL
SAGUACHE       NOT AVBL
$$

COZ035-036-038>040-291600-
...NORTHERN COLORADO FRONT RANGE...

CITY           SKY/WX    TMP DP  RH WIND       PRES   REMARKS
DENVER INTL AP MOSUNNY   67  48  50 SW9       30.11S
DMNS CITY PARK   N/A     64  48  55 S5        30.11F
AURORA         MOSUNNY   63  47  55 SW7       30.15R
FRONT RANGE AP NOT AVBL
ERIE MUNI ARPT PTSUNNY   66  56  71 CALM      30.09F
BOULDER MUN AP SUNNY     70  46  43 E3        30.10R
CENTENNIAL     MOSUNNY   65  44  46 SW8       30.15R
BROOMFIELD     PTSUNNY   70  45  40 NW8       30.13S
FORT COLLINS   MOSUNNY   63  52  67 SE5       30.10S
LONGMONT       MOSUNNY   65  53  64 CALM      30.10F
$$

COZ041-046-047-076>085-087-088-291600-
...PIKES PEAK/PALMER DIVIDE AND SOUTHERN FOOTHILLS...

CITY           SKY/WX    TMP DP  RH WIND       PRES   REMARKS
COLO. SPRINGS  MOSUNNY   70  41  34 NW10      30.18S
A. F. ACADEMY  SUNNY     66  43  43 N6        30.20R
ELLICOTT       SUNNY     68  43  40 N7        30.16S
FALCON         SUNNY     68  38  33 NW10      30.22S
FORT CARSON    SUNNY     67  44  44 NW7       30.16S
LIMON          SUNNY     67  48  50 NW12      30.11S
MONUMENT HILL  SUNNY     63  43  48 W9        30.22S
TRINIDAD       SUNNY     67  42  40 W12       30.18R
$$

COZ042>045-048>051-090-091-291600-
...NORTHEAST COLORADO...

CITY           SKY/WX    TMP DP  RH WIND       PRES   REMARKS
GREELEY ARPT   MOSUNNY   64  48  55 SW3       30.09S
AKRON          SUNNY     62  52  69 W13       30.05S
BURLINGTON     SUNNY     72  50  45 NW13      30.03S
WRAY             N/A     69  55  59 W7        29.99
STERLING       SUNNY     64  57  77 S7        30.01F
HOLYOKE        SUNNY     72  55  56 NW6       29.98F
FORT MORGAN    SUNNY     62  52  69 W9        30.06S
$$

COZ086-089-092>099-291600-
...SOUTHEAST COLORADO...

CITY           SKY/WX    TMP DP  RH WIND       PRES   REMARKS
PUEBLO         SUNNY     68  46  45 W13       30.10F
LA JUNTA       SUNNY     64  53  67 W14       30.06S
LAMAR          SUNNY     66  53  63 W14       30.02S
SPRINGFIELD      N/A     73  49  42 NW17      30.06R
$$


USA.gov is the U.S. government's official web portal to all federal, state and local government web resources and services.